{"data":{"norad_id":59671,"epoch":"2026-05-25T03:36:29.426976Z","epoch_age_seconds":52145,"freshness":"FRESH","line1":"1 59671U 24084T   26145.15034059  .00001655  00000+0  69686-4 0  9996","line2":"2 59671  43.0057 296.9651 0003491 281.4058  78.6402 15.27573178116429","mean_motion":15.27573178,"eccentricity":0.0003491,"inclination_deg":43.0057,"raan_deg":296.9651,"arg_perigee_deg":281.4058,"mean_anomaly_deg":78.6402,"bstar":6.9686e-5,"rev_number":11642,"period_min":94.2671697002,"perigee_km":480.67427644048,"apogee_km":485.46477083528,"semimajor_km":6861.2065236379,"source":"CELESTRAK","updated_at":"2026-05-25T13:38:19.021166Z"}}